Date,TemperatureHighF,TemperatureAvgF,TemperatureLowF,DewpointHighF,DewpointAvgF,DewpointLowF,HumidityHigh,HumidityAvg,HumidityLow,PressureMaxIn,PressureMinIn,WindSpeedMaxMPH,WindSpeedAvgMPH,GustSpeedMaxMPH,PrecipitationSumIn
2013-2-1,65,48,30,-100,-100,-100,0,0,100,30.33,30.23,5,0,10,0.00
2013-2-2,70,51,33,-100,-100,-100,0,0,100,30.39,30.24,4,0,10,0.00
2013-2-3,65,54,46,-100,-100,-100,0,0,100,30.27,30.08,5,0,7,0.00
2013-2-4,66,54,42,-100,-100,-100,0,0,100,30.16,30.04,4,0,10,0.00
2013-2-5,68,54,40,-100,-100,-100,0,0,100,30.16,30.01,5,0,9,0.00
2013-2-6,64,51,39,-100,-100,-100,0,0,100,30.14,30.01,6,0,10,0.00
2013-2-7,67,51,38,-100,-100,-100,0,0,100,30.23,30.08,4,0,6,0.00
2013-2-8,64,50,36,-100,-100,-100,0,0,100,30.08,29.87,9,1,18,0.00
2013-2-9,47,41,33,-100,-100,-100,0,0,100,30.10,29.86,10,3,22,0.00
2013-2-10,53,40,25,-100,-100,-100,0,0,100,30.11,29.98,5,0,10,0.00
2013-2-11,48,36,26,-100,-100,-100,0,0,100,30.19,30.02,8,2,19,0.02
2013-2-12,47,38,29,-100,-100,-100,0,0,100,30.32,30.19,5,0,11,0.04
2013-2-13,60,42,25,-100,-100,-100,0,0,100,30.27,30.14,3,0,7,0.01
2013-2-14,62,44,27,-100,-100,-100,0,0,100,30.23,30.11,6,0,11,0.00
2013-2-15,65,48,35,-100,-100,-100,0,0,100,30.34,30.22,11,2,17,0.00
2013-2-16,69,56,46,-100,-100,-100,0,0,100,30.19,30.16,6,1,12,0.00
2013-2-17,68,50,31,-100,-100,-100,0,0,100,30.16,29.93,7,1,16,0.00
2013-2-18,64,51,34,-100,-100,-100,0,0,100,30.19,30.03,6,0,13,0.00
2013-2-19,65,51,36,-100,-100,-100,0,0,100,30.06,29.80,17,3,25,0.00
2013-2-20,50,41,31,-100,-100,-100,0,0,100,30.02,29.71,11,2,28,0.00
2013-2-21,48,39,27,-100,-100,-100,0,0,100,30.14,30.01,4,0,11,0.14
2013-2-22,50,42,32,-100,-100,-100,0,0,100,30.25,30.08,7,1,14,0.01
2013-2-23,61,45,28,-100,-100,-100,0,0,100,30.24,29.94,5,0,9,0.00
2013-2-24,48,42,33,-100,-100,-100,0,0,100,30.17,29.89,16,4,25,0.00
2013-2-25,54,41,27,-100,-100,-100,0,0,100,30.29,30.14,3,0,9,0.00
2013-2-26,58,42,26,-100,-100,-100,0,0,100,30.20,30.04,7,1,14,0.00
2013-2-27,61,45,28,-100,-100,-100,0,0,100,30.31,30.20,5,0,9,0.00
2013-2-28,65,46,27,-100,-100,-100,0,0,100,30.43,30.30,8,1,12,0.00